Weather in Pietra Ligure

Italy     44°09′15″N   8°17′46″E
В апреле 2022 года жителям России запретили посещать сайт meteo.paraplan.net по решению Генеральной прокуратуры. Аудитория сайта уменьшилась в 10 раз. Владельцы сайта не видят смысла в поддержке погодного сервера в таких условиях. Сайт будет закрыт в октябре.
temp.,
°C
wind,
m/s
gust,
m/s
humid.,
%
clouds,
%
prec.,
mm/h
press.,
hPa
HPBL,
m
29 september, thu
thu2923:00+12nw229538 0.0 99933
02:00+11nw229528 0.0 99832
05:00+12nw229277 0.0 99734
08:00+13nnw119178 0.2 99731
11:00+14nne1187100 0.3 998190
14:00+14se128797 1.1 999418
17:00+15se1382100 0.3 998470
20:00+13w1290100 0.5 99996
30 september, fri
fri3023:00+11nw239499 0.6 100149
02:00+11nw2293100 2.2 100243
05:00+11nw229298 0.4 100348
08:00+11nw229496 0.4 100564
11:00+15nne118149 0.5 1007542
14:00+15ese0175100 2.2 1009786
17:00+13n1289100 1.9 1010164
20:00+10nw3497100 2.5 1013143
1 october, sat
sat123:00+10nw239595 0.1 101583
02:00+9nw229245 0.1 101639
05:00+9nw22900 0.0 101624
08:00+9wnw22872 0.0 101724
11:00+15sse23656 0.0 1017766
14:00+16sse446399 0.0 10161036
17:00+15se3366100 0.0 1015683
20:00+11nnw22864 0.0 101635
2 october, sun
sun223:00+11nw22820 0.0 101844
02:00+11nw32770 0.0 101940
05:00+11nw22745 0.0 102033
08:00+11nw227390 0.0 102235
11:00+19ne124798 0.0 1023641
14:00+20sse2250100 0.0 1023890
17:00+17se2260100 0.0 1022462
20:00+12w1189100 0.0 102321
3 october, mon
mon323:00+12w119032 0.0 102217
02:00+12wnw118956 0.0 102118
05:00+12nw226140 0.0 102228
08:00+12nw2259100 0.0 102128
11:00+19ese114199 0.0 1020637
14:00+20se2142100 0.0 10191075
17:00+18se1153100 0.0 1018441
20:00+14nw227188 0.0 101931